Location: *
(42.0175°N, 9.4056°E)
Time: 12:28:29
(UTC+00:00)

Okean 3 - Pass Details

Date: 25 August 2019
Orbit: 576 x 601 km, 82.5° (Epoch: 19 September)

Event Time Altitude Azimuth Distance (km) Brightness Sun altitude
Rises 19:26:43 0° 347° (NNW) 2,803 7.6 -14.3°
Reaches altitude 10° 19:28:57 10° 343° (NNW) 1,902 6.7 -14.7°
Maximum altitude 19:33:02 55° 266° (W) 705 4.1 -15.4°
Drops below altitude 10° 19:37:08 10° 189° (S) 1,898 5.8 -16.0°
Enters shadow 19:38:13 - 186° (S) 2,339 6.3 -16.2°
